MEV-2

Last updated on Thu Nov 21 2024 00:02:44 GMT+0000 (Coordinated Universal Time)

1 46113U 20056B 24325.60079760 -.00000009 00000+0 00000+0 0 9997 2 46113 0.0315 72.8211 0001043 194.2883 8.3197 1.00270359 16394
UTC large
Height (km)
Speed (km/s)
/
Latitude / Longitude
Inclination (degrees)
Orbital Period (minutes)
Azimuth
Elevation
Range (km)
Doppler Factor

Next 0 passes for location: London (51.5072 / 0.1276)

Sorry there are no passes over London.